This is the latest recevied weather packets stored in our database for station/object YT1XN-8. If no packets are shown the sender has not sent any weather packets the latest 10 day(s).
| Time | Temp. | Humidity | Pressure | Rain* | Wind** | Luminosity | Snow |
|---|---|---|---|---|---|---|---|
| 1777374046 | 22.22° C | 44% | 1019.1 hPa | 0 mm | - | - | - |
| 1777373504 | 22.22° C | 44% | 1019.2 hPa | 0 mm | - | - | - |
| 1777373446 | 22.22° C | 44% | 1019.2 hPa | 0 mm | - | - | - |
| 1777372844 | 21.11° C | 44% | 1019.3 hPa | 0 mm | - | - | - |
| 1777372248 | 21.11° C | 45% | 1019.3 hPa | 0 mm | - | - | - |
| 1777372184 | 21.11° C | 44% | 1019.3 hPa | 0 mm | - | - | - |
| 1777371646 | 20.56° C | 47% | 1019.3 hPa | 0 mm | - | - | - |
| 1777371524 | 20.56° C | 44% | 1019.3 hPa | 0 mm | - | - | - |
| 1777371045 | 20.56° C | 44% | 1019.5 hPa | 0 mm | - | - | - |
| 1777370864 | 20.56° C | 45% | 1019.5 hPa | 0 mm | - | - | - |
| 1777370446 | 20.56° C | 49% | 1019.5 hPa | 0 mm | - | - | - |
| 1777370204 | 20.56° C | 47% | 1019.6 hPa | 0 mm | - | - | - |
| 1777369846 | 20.56° C | 46% | 1019.5 hPa | 0 mm | - | - | - |
| 1777369544 | 21.11° C | 49% | 1019.6 hPa | 0 mm | - | - | - |
| 1777369246 | 21.11° C | 48% | 1019.6 hPa | 0 mm | - | - | - |
| 1777368884 | 20.56° C | 49% | 1019.8 hPa | 0 mm | - | - | - |
| 1777368645 | 20.56° C | 53% | 1019.8 hPa | 0 mm | - | - | - |
| 1777368224 | 20° C | 52% | 1019.8 hPa | 0 mm | - | - | - |
| 1777368045 | 20° C | 49% | 1020 hPa | 0 mm | - | - | - |
| 1777367564 | 20° C | 51% | 1020.1 hPa | 0 mm | - | - | - |
| 1777367445 | 20° C | 50% | 1020 hPa | 0 mm | - | - | - |
| 1777366904 | 20° C | 48% | 1020.1 hPa | 0 mm | - | - | - |
| 1777366847 | 20° C | 49% | 1020.1 hPa | 0 mm | - | - | - |
| 1777366244 | 19.44° C | 50% | 1020.3 hPa | 0 mm | - | - | - |
| 1777365646 | 20° C | 48% | 1020.3 hPa | 0 mm | - | - | - |
* Rain latest hour (hover to see other rain measurements)
** Current wind speed in m/s (hover to see current wind gust speed)